Starlink 31255

operational
NORAD ID: 58893 Int'l Des: 2024-020 Owner: SPXS Country: US Constellation: starlink
LEOCIRCULAR

Über Starlink 31255

Beschreibung wird geladen...

Live-Position

3D-Globus wird geladen...

Nächste Überflüge

Höhenverlauf

Altitude vs Time

uPlot chart will show altitude changes over time

Zweizeiliger Elementsatz

1 58893U 24020T 25304.97820594 .00001432 00000-0 60474-4 0 9994
2 58893 53.1588 200.3511 0001500 106.1819 253.9347 15.30188315 98363
Epoch: 31. Okt. 2025 • Age: 29 hours

Aktueller Status

Höhe 478.0 km
Geschwindigkeit 7.63 km/s
Subsatellitenpunkt -10.67°S, 86.92°W
Startdatum 29. Jan. 2024
Alter 1.7 years
Typ internet

Technische Details

Klassifizierung Payload
Masse 730.00 kg
Trockenmasse 700.00 kg
Gesamtmasse 730.00 kg
Länge 0.30 m
Durchmesser 4.10 m
Spannweite 29.00 m
Form Box + pan
Hersteller SPXS
Bus-Typ Starlink V2M
Phasenstatus In Orbit
Besitzer/Staat SPXS/US

Große Konstellationen

Loading constellations...